STARLINK-30759, 58122

Orbit data source: Space-Track

STARLINK-30759, 58122 is a payload satellite owned by SpaceX/Seattle (US) in LEO that was launched on Sun, 22 Oct 2023 UTC via an FALCON 9 launch vehicle from the Air Force Eastern Test Range (AFETR). Payload-class satellites include a variety of spacecraft equipped with specific instruments for various scientific and technological missions. These include communications satellites like Starlink; space stations such as the ISS; scientific satellites like the Hubble; Earth observation satellites from companies like Planet Labs, Umbra, and HawkEye 360; GPS; miniature CubeSats for education and research; and military/defense satellites.

Loading next visibility...
Identifier
58122, 2023-162E
Orbit
LEO
Country
Flag of USUS
Related business
Manufacturer
SpaceX/Seattle
Mission
Operational Commercial Communications
Bus & Motor
STARLINK V2M, Unknown motor
Mass
730 kg wet, ~700 kg dry
Launch date (UTC)
2023-10-22 (2 years ago)
Launch vehicle
FALCON 9
Launch site
Air Force Eastern Test Range (AFETR)
Object type
Payload
Rocket body
Debris
Shape & HBR
Box + 2 Pan, 17.7 m
Radar Cross Section
33.884 m², Large (>1 m²)

Expand to show TLE details & history
Last TLE update: 22 hours ago

TLE from 22 hours ago
0 STARLINK-30759
1 58122U 23162E   25348.68768372  .00002131  00000-0  17278-3 0  9996
2 58122  43.0027 234.9609 0000632 285.0699  75.0074 15.02540035119525
Epoch: 2025-12-14T16:30Z
TLE epoch observation values (Epoch: 2025-12-14T16:30:15.873Z)
Latitude
0.00003°
Longitude
-96.20223°
Altitude
558.732 km
Speed
7.584 km/s
True Right ascension
15h 39m 50s
True Declination
0° 00' 00"
Sunlit
Object was in daylight at epoch
Visualization orbit readout
Latitude
Unknown
Longitude
Unknown
Altitude
Unknown
Speed
Unknown
Apparent Right ascension
Unknown
Apparent Declination
Unknown
Sunlit
N/A
Visualization observer readout
Local Sidereal Time
13:25:41
Azimuth
Unknown
Elevation
Unknown
Doppler factor
Unknown
Orbital elements
Apogee altitude
561.429 km
Perigee altitude
560.552 km
Semi-major axis
6,939.128 km
Eccentricity
0.00006
Inclination
43.0027°
RAAN
234.9609°
Arg. of periapsis
285.0699°
True anomaly
75.0144°
Mean anomaly
75.0074°
Eccentric anomaly
75.0109°
Mean motion
3.75479 °/min
Orbital period
95.88 mins
BSTAR
0.00017278
Loading maneuver chart data...
Computing Atmospheric mass density...
Loading historical data...
Loading historical data...
Loading historical data...
Loading historical data...
Loading historical data...
Loading historical data...
Loading historical data...

Documentation

Showing up to 5 results
|